Weather History for Manteo, NC

Change the Weather History Date:

Tuesday, July 2, 2013

  Actual Average Record
Temperature  
Mean Temperature 78 °F -  
Max Temperature 83 °F 83 °F 93 °F (1968)
Min Temperature 72 °F 72 °F 45 °F (1984)
Cooling Degree Days 12    
Growing Degree Days 28 (Base 50)    
Moisture  
Dew Point 74 °F    
Average Humidity 86    
Maximum Humidity 94    
Minimum Humidity 78    
Precipitation  
Precipitation 0.24 in - - ()
Sea Level Pressure  
Sea Level Pressure 30.17 in    
Wind  
Wind Speed 16 mph (SSW)    
Max Wind Speed 23 mph    
Max Gust Speed 31 mph    
Visibility 10 miles    
Events Rain    
Averages and records for this station are not official NWS values.
T = Trace of Precipitation, MM = Missing Value Source: NWS Daily Summary

Daily Weather History Graph

Daily Weather History Graph

Search for Another Location

Airport:

Trip Planner

Search our weather history database for the weather conditions in past years. The results will help you decide how hot, cold, wet, or windy it might be!

Date:

Astronomy

Jul. 02, 2013 Rise Set
Actual Time 5:50 AM EDT 8:23 PM EDT
Civil Twilight 5:20 AM EDT 8:53 PM EDT
Nautical Twilight 4:43 AM EDT 9:30 PM EDT
Astronomical Twilight 4:01 AM EDT 10:11 PM EDT
Moon 1:46 AM EDT (7/2) 3:39 PM EDT (7/2)
Length of Visible Light 15h 32m
Length of Day
14h 32m
Waning Crescent, 26% of the Moon is Illuminated
Jul 2
Waning Crescent
Jul 8
New
Jul 15
First Quarter
Jul 22
Full
Jul 29
Last Quarter

Hourly Weather History & Observations

Time (EDT) Temp. Heat Index Dew Point Humidity Pressure Visibility Wind Dir Wind Speed Gust Speed Precip Events Conditions
12:15 AM 77.2 °F - 73.0 °F 87% 30.09 in 10.0 mi SSW 20.7 mph - N/A   Clear
12:35 AM 77.2 °F - 73.6 °F 89% 30.09 in 10.0 mi SSW 18.4 mph - N/A   Scattered Clouds
12:55 AM 77.4 °F - 73.6 °F 88% 30.09 in 10.0 mi SW 17.3 mph - N/A   Mostly Cloudy
1:15 AM 77.4 °F - 73.6 °F 88% 30.09 in 10.0 mi SSW 18.4 mph - N/A   Overcast
1:35 AM 77.2 °F - 73.6 °F 89% 30.09 in 10.0 mi SSW 18.4 mph - N/A   Mostly Cloudy
1:55 AM 77.2 °F - 73.9 °F 90% 30.09 in 10.0 mi SSW 17.3 mph 20.7 mph N/A   Scattered Clouds
2:15 AM 77.4 °F - 73.6 °F 88% 30.09 in 10.0 mi SSW 19.6 mph - N/A   Mostly Cloudy
2:35 AM 77.4 °F - 72.9 °F 86% 30.09 in 10.0 mi SSW 17.3 mph - N/A   Scattered Clouds
2:55 AM 77.4 °F - 72.9 °F 86% 30.09 in 10.0 mi SSW 15.0 mph - N/A   Scattered Clouds
3:15 AM 77.5 °F - 73.4 °F 87% 30.09 in 10.0 mi SW 17.3 mph - N/A   Scattered Clouds
3:35 AM 77.5 °F - 73.8 °F 88% 30.09 in 10.0 mi SW 15.0 mph 19.6 mph N/A   Scattered Clouds
3:55 AM 77.9 °F - 74.3 °F 89% 30.09 in 10.0 mi SSW 18.4 mph - N/A   Scattered Clouds
4:15 AM 77.9 °F - 74.3 °F 89% 30.09 in 10.0 mi SSW 18.4 mph - N/A   Scattered Clouds
4:35 AM 78.1 °F - 74.7 °F 89% 30.10 in 10.0 mi SSW 18.4 mph - N/A   Overcast
4:55 AM 77.2 °F - 74.5 °F 91% 30.11 in 7.0 mi West 17.3 mph 23.0 mph 0.06 in   Overcast
5:15 AM 76.3 °F - 72.1 °F 87% 30.11 in 10.0 mi SW 18.4 mph 21.9 mph N/A Rain Light Rain
5:35 AM 72.7 °F - 70.7 °F 93% 30.14 in 3.0 mi WSW 18.4 mph 31.1 mph 0.08 in Rain Rain
5:55 AM 73.4 °F - 70.7 °F 91% 30.14 in 10.0 mi SW 18.4 mph - 0.08 in Rain Rain
6:15 AM 72.9 °F - 69.8 °F 90% 30.14 in 10.0 mi SW 15.0 mph - 0.01 in Rain Light Rain
6:35 AM 72.9 °F - 70.0 °F 91% 30.15 in 10.0 mi SSW 16.1 mph - 0.01 in Rain Rain
6:55 AM 73.0 °F - 71.2 °F 94% 30.15 in 7.0 mi SW 15.0 mph - 0.03 in Rain Light Rain
7:15 AM 73.8 °F - 71.6 °F 93% 30.15 in 10.0 mi SW 13.8 mph - N/A   Scattered Clouds
7:35 AM 74.7 °F - 71.6 °F 90% 30.15 in 10.0 mi SW 11.5 mph - N/A   Light Drizzle
7:55 AM 75.2 °F - 72.0 °F 90% 30.16 in 10.0 mi SW 15.0 mph - N/A   Clear
8:15 AM 75.6 °F - 72.1 °F 89% 30.17 in 10.0 mi SSW 15.0 mph - N/A   Clear
8:35 AM 76.1 °F - 72.9 °F 90% 30.18 in 10.0 mi SSW 13.8 mph - N/A   Clear
8:55 AM 77.0 °F - 73.8 °F 90% 30.18 in 10.0 mi SSW 12.7 mph - N/A   Clear
9:15 AM 77.5 °F - 74.3 °F 90% 30.19 in 10.0 mi SSW 13.8 mph - N/A   Scattered Clouds
9:35 AM 78.1 °F - 74.3 °F 88% 30.19 in 7.0 mi SSW 11.5 mph - N/A   Clear
9:55 AM 79.9 °F - 74.5 °F 83% 30.19 in 10.0 mi SSW 12.7 mph - N/A   Clear
10:15 AM 80.6 °F 85.5 °F 73.9 °F 80% 30.19 in 10.0 mi SSW 11.5 mph - N/A   Clear
10:35 AM 81.5 °F 87.4 °F 74.5 °F 79% 30.19 in 10.0 mi South 11.5 mph - N/A   Mostly Cloudy
10:55 AM 81.0 °F 86.3 °F 74.3 °F 80% 30.19 in 10.0 mi South 12.7 mph 17.3 mph N/A   Overcast
11:15 AM 82.6 °F 89.9 °F 75.6 °F 79% 30.19 in 10.0 mi South 15.0 mph - N/A   Mostly Cloudy
11:35 AM 82.4 °F 89.5 °F 75.4 °F 79% 30.20 in 10.0 mi South 12.7 mph 17.3 mph N/A   Mostly Cloudy
11:55 AM 82.4 °F 90.1 °F 75.9 °F 81% 30.20 in 10.0 mi South 13.8 mph 19.6 mph N/A   Scattered Clouds
12:15 PM 79.9 °F - 75.7 °F 87% 30.20 in 10.0 mi South 12.7 mph 19.6 mph N/A   Scattered Clouds
12:35 PM 79.7 °F - 76.5 °F 90% 30.20 in 7.0 mi South 13.8 mph 19.6 mph N/A Rain Rain
12:55 PM 81.0 °F 87.7 °F 76.8 °F 87% 30.19 in 10.0 mi South 13.8 mph 20.7 mph N/A   Scattered Clouds
1:15 PM 81.9 °F 89.5 °F 76.6 °F 84% 30.19 in 10.0 mi South 12.7 mph 18.4 mph N/A   Clear
1:35 PM 82.0 °F 89.7 °F 76.3 °F 83% 30.19 in 10.0 mi South 15.0 mph 20.7 mph N/A   Clear
1:55 PM 82.6 °F 90.5 °F 76.1 °F 81% 30.19 in 10.0 mi SSW 13.8 mph 23.0 mph N/A   Clear
2:15 PM 82.8 °F 90.4 °F 75.7 °F 79% 30.19 in 10.0 mi SSW 17.3 mph - N/A   Clear
2:35 PM 82.9 °F 90.8 °F 75.7 °F 79% 30.19 in 10.0 mi South 16.1 mph 23.0 mph N/A   Clear
2:55 PM 83.5 °F 91.9 °F 75.9 °F 78% 30.19 in 10.0 mi SSW 16.1 mph 23.0 mph N/A   Clear
3:15 PM 83.5 °F 91.9 °F 76.1 °F 78% 30.19 in 10.0 mi South 19.6 mph - N/A   Clear
3:35 PM 83.3 °F 91.8 °F 76.1 °F 79% 30.19 in 10.0 mi South 17.3 mph 23.0 mph N/A   Scattered Clouds
3:55 PM 81.7 °F 88.3 °F 75.4 °F 81% 30.19 in 10.0 mi SSW 18.4 mph 23.0 mph N/A   Scattered Clouds
4:15 PM 81.5 °F 87.6 °F 74.7 °F 80% 30.20 in 10.0 mi SW 23.0 mph 26.5 mph N/A   Scattered Clouds
4:35 PM 78.4 °F - 75.2 °F 90% 30.19 in 3.0 mi WSW 16.1 mph 21.9 mph 0.07 in Rain Rain
4:55 PM 79.9 °F - 75.4 °F 86% 30.19 in 10.0 mi SSW 15.0 mph 21.9 mph 0.07 in   Mostly Cloudy
5:15 PM 80.1 °F 85.2 °F 75.6 °F 86% 30.19 in 10.0 mi SSW 17.3 mph - N/A   Scattered Clouds
5:35 PM 80.4 °F 86.0 °F 75.4 °F 85% 30.19 in 10.0 mi SSW 17.3 mph - N/A   Mostly Cloudy
5:55 PM 80.8 °F 86.5 °F 75.2 °F 83% 30.19 in 10.0 mi SSW 17.3 mph 21.9 mph N/A   Mostly Cloudy
6:15 PM 79.7 °F - 75.4 °F 87% 30.20 in 10.0 mi SSW 19.6 mph - N/A   Mostly Cloudy
6:35 PM 80.6 °F 86.2 °F 75.4 °F 84% 30.21 in 10.0 mi SSW 16.1 mph - N/A   Mostly Cloudy
6:55 PM 80.6 °F 85.9 °F 74.7 °F 82% 30.21 in 10.0 mi South 11.5 mph - N/A   Scattered Clouds
7:15 PM 80.2 °F 85.2 °F 74.7 °F 83% 30.22 in 10.0 mi SSW 15.0 mph - N/A   Clear
7:35 PM 79.9 °F - 75.2 °F 86% 30.22 in 10.0 mi SSW 12.7 mph - N/A   Clear
7:55 PM 79.7 °F - 74.7 °F 84% 30.22 in 10.0 mi South 16.1 mph - N/A   Scattered Clouds
8:15 PM 78.1 °F - 71.2 °F 79% 30.22 in 10.0 mi South 9.2 mph - N/A   Mostly Cloudy
8:35 PM 78.4 °F - 72.9 °F 83% 30.22 in 10.0 mi SSW 11.5 mph 17.3 mph N/A   Scattered Clouds
8:55 PM 78.8 °F - 73.9 °F 85% 30.23 in 10.0 mi SSW 12.7 mph - N/A   Clear
9:15 PM 78.8 °F - 73.6 °F 84% 30.23 in 10.0 mi SSW 15.0 mph 18.4 mph N/A   Clear
9:35 PM 78.6 °F - 74.5 °F 87% 30.24 in 10.0 mi SSW 11.5 mph - N/A   Scattered Clouds
9:55 PM 78.4 °F - 74.7 °F 88% 30.24 in 10.0 mi SSW 11.5 mph - N/A   Scattered Clouds
10:15 PM 78.4 °F - 75.2 °F 90% 30.24 in 10.0 mi SSW 12.7 mph 17.3 mph N/A   Scattered Clouds
10:35 PM 78.8 °F - 74.3 °F 86% 30.24 in 10.0 mi SSW 17.3 mph - N/A   Scattered Clouds
10:55 PM 78.8 °F - 73.9 °F 85% 30.25 in 10.0 mi SSW 15.0 mph 20.7 mph N/A   Scattered Clouds
11:15 PM 78.4 °F - 74.7 °F 88% 30.25 in 10.0 mi SSW 15.0 mph - N/A   Scattered Clouds
11:35 PM 78.4 °F - 74.5 °F 88% 30.25 in 10.0 mi SSW 18.4 mph - N/A   Scattered Clouds
11:55 PM 78.3 °F - 74.5 °F 88% 30.25 in 10.0 mi SSW 13.8 mph - N/A   Clear